Theta_e
318 317 316 316 314 314 313 311 308 303 304 308 308 308 306 304 296 298 299 297 299 299 300 300 301 302 303 304 306 308 309 311 312 313 314 316 318 318
316 315 313 312 311 310 310 310 309 307 303 307 307 302 298 297 294 294 295 294 295 295 296 297 298 299 299 300 301 303 304 306 308 309 311 312 314 318
304 303 302 303 302 302 302 302 300 300 301 303 302 299 294 291 291 291 291 291 290 292 294 296 296 296 296 297 298 298 300 301 302 303 305 308 309 311
298 298 297 298 297 298 298 296 297 297 296 293 294 291 291 289 288 287 288 289 287 290 293 293 293 294 295 295 296 296 296 297 297 299 300 303 305 308
293 293 293 294 293 293 293 293 292 292 291 290 289 289 288 287 285 284 285 285 287 289 291 290 292 293 293 294 294 294 293 293 294 295 297 299 301 304
291 291 291 291 291 291 289 289 289 288 288 287 286 285 284 284 282 282 282 283 283 286 287 288 290 291 292 292 291 290 292 293 293 293 295 297 298 300
289 289 289 287 289 289 288 286 286 285 284 283 282 281 280 281 281 282 281 282 281 283 283 285 285 286 286 288 287 290 292 292 292 293 293 295 297 298
285 285 285 285 288 290 290 289 287 284 283 282 280 280 281 282 282 281 280 279 277 278 283 282 280 282 283 285 289 290 291 292 293 294 294 294 296 297
284 283 284 284 284 284 287 286 286 287 286 283 282 281 281 282 282 280 280 279 278 279 280 276 278 280 283 284 289 290 291 292 293 293 294 295 295 296
283 282 283 283 284 283 283 282 281 283 284 285 284 282 283 284 282 282 281 279 274 276 279 273 278 279 282 283 287 289 290 291 293 296 296 296 296 296
282 282 283 283 285 285 281 280 281 282 284 286 286 285 285 284 284 282 279 277 269 271 278 277 275 280 279 277 283 288 288 291 293 297 298 296 296 297
281 282 284 284 285 284 281 280 279 281 279 278 280 281 283 282 283 282 281 277 273 268 277 276 277 278 275 275 282 284 284 287 290 293 296 297 297 296
280 280 281 285 285 285 284 281 281 282 280 275 279 280 280 280 280 281 281 278 273 276 280 277 276 275 276 276 275 282 282 282 285 286 291 295 294 293
278 278 280 284 285 284 282 283 282 278 280 279 278 278 278 279 279 280 276 275 279 277 275 274 271 274 274 275 275 277 279 281 282 283 284 288 292 294
279 282 283 283 282 281 282 280 275 279 278 277 277 277 278 279 279 278 271 269 268 268 270 270 270 272 270 273 273 274 276 278 281 281 282 283 283 286
279 276 281 280 280 276 272 272 273 278 277 277 277 278 278 278 270 271 268 270 264 266 269 272 271 275 272 264 271 272 274 275 277 279 280 281 282 284
268 267 266 266 266 264 263 264 273 277 277 277 277 276 269 267 266 266 266 265 265 264 268 267 268 266 271 273 266 272 272 273 276 277 278 277 280 282
265 262 261 260 261 261 261 268 274 275 276 276 276 276 267 264 263 263 262 264 261 264 262 263 263 263 265 266 277 271 269 267 275 275 274 276 276 281
262 259 259 259 259 259 260 272 273 270 275 275 275 275 266 265 265 261 260 259 260 258 259 259 262 259 259 258 265 278 269 271 273 273 275 275 276 278
260 261 260 259 259 263 268 271 263 260 269 261 263 265 258 260 261 261 259 258 258 258 262 263 265 264 259 263 262 273 278 269 266 268 269 272 275 280
261 263 263 263 263 265 270 271 269 262 260 260 259 259 258 259 258 257 259 260 260 256 259 261 263 265 261 260 263 265 268 278 272 262 262 263 261 267
263 265 265 264 264 265 269 269 270 261 260 260 259 259 258 259 259 258 257 260 258 258 259 259 263 261 261 260 258 260 263 265 270 277 278 272 264 263
268 267 264 263 261 260 260 269 268 266 259 259 259 258 258 262 259 260 259 257 258 258 258 260 262 262 258 258 257 258 258 259 260 263 267 278 278 278
Wind_Speed
8 7 5 5 5 4 4 4 3 1 2 1 1 6 6 6 11 9 8 13 17 19 19 19 19 20 21 21 22 23 23 24 24 26 26 27 26 27
3 4 1 2 3 2 0 2 2 3 3 1 3 6 7 6 8 7 8 9 13 17 19 19 18 20 20 21 21 22 23 24 24 24 25 25 25 25
8 8 8 6 5 4 4 4 3 2 1 1 4 5 6 9 9 7 6 7 7 16 20 19 21 21 20 21 21 22 22 23 24 24 25 25 24 24
8 8 7 5 7 6 5 6 5 5 2 1 4 6 5 9 8 10 8 7 7 13 17 20 21 20 22 21 21 22 24 25 25 24 24 23 24 23
9 9 8 7 6 5 6 5 4 4 3 3 3 3 2 6 5 5 7 8 7 12 16 19 20 19 20 21 23 23 23 24 26 25 24 22 23 23
11 9 8 8 6 5 6 5 4 5 4 3 3 2 2 3 3 9 10 9 11 7 14 17 18 19 20 23 22 20 23 25 27 26 24 23 21 20
10 9 9 9 13 10 5 5 6 5 3 4 2 3 4 5 9 6 6 9 7 4 11 10 9 8 10 15 15 21 26 29 29 27 25 22 20 18
7 6 7 6 9 14 16 16 11 5 5 2 3 5 7 6 6 7 6 7 5 4 10 12 3 10 10 10 23 27 30 31 31 26 24 21 19 17
6 6 5 5 6 6 14 16 14 16 13 6 7 6 6 6 6 6 8 7 4 5 9 5 5 11 11 11 22 30 32 33 32 28 25 22 19 14
7 5 5 6 8 5 7 9 7 7 9 6 5 4 6 5 5 5 7 7 4 2 11 4 8 12 12 9 20 31 34 34 36 27 18 15 14 10
6 5 5 8 12 12 8 8 9 7 8 12 13 12 11 12 11 4 7 9 4 3 9 6 5 12 5 5 11 30 33 36 38 27 7 5 5 7
6 5 13 10 15 12 7 8 9 5 4 5 4 8 9 9 14 7 4 6 4 4 8 9 7 9 7 4 10 13 16 31 32 39 35 26 22 14
4 4 3 13 14 16 12 5 6 5 6 4 5 6 6 6 7 6 7 2 3 3 7 5 4 7 4 6 5 11 13 16 13 18 31 32 31 21
4 1 2 12 15 14 9 12 12 8 5 6 6 7 7 6 6 5 5 4 3 5 6 3 2 5 5 5 6 9 12 13 12 12 12 18 27 27
2 8 12 14 14 11 14 12 6 5 5 5 6 5 4 4 4 3 4 4 3 3 3 3 2 4 3 4 5 7 7 8 11 10 11 12 11 8
5 3 10 12 13 9 5 6 2 5 5 4 3 2 2 2 3 3 3 4 3 4 4 7 5 8 6 2 4 6 8 7 9 9 7 10 10 9
4 4 4 4 4 3 3 3 3 5 4 4 3 2 3 3 3 3 3 3 4 3 6 4 6 3 7 9 4 7 7 6 9 8 8 9 10 9
5 3 2 2 2 1 2 2 4 5 3 4 3 3 2 2 2 4 3 4 4 5 4 4 4 4 5 5 18 7 5 4 7 9 7 9 10 9
4 2 3 2 2 2 3 3 4 1 2 3 3 3 3 2 3 4 3 3 4 3 3 3 4 4 4 3 5 18 4 6 5 10 8 8 7 8
3 4 4 4 4 4 3 3 3 2 2 2 1 2 2 2 3 2 3 2 3 3 4 4 5 4 4 3 2 3 15 4 4 4 4 5 5 17
3 4 4 5 5 4 3 3 3 3 3 2 1 1 1 2 2 1 2 3 3 2 3 4 4 4 1 2 4 4 5 15 8 3 1 4 2 3
3 4 5 4 4 5 4 3 3 3 3 3 3 2 2 2 2 2 2 2 1 0 2 2 4 3 4 3 1 2 4 5 9 14 12 4 4 3
7 6 5 4 4 4 3 5 3 3 3 3 3 2 2 2 2 2 3 2 1 1 1 3 4 4 3 2 2 2 4 4 4 5 6 15 5 4
Wind_Direction
215 210 206 216 204 214 211 202 172 258 271 338 69 57 45 40 24 10 2 351 1 0 357 351 342 335 329 320 315 312 307 302 297 293 288 280 268 247
209 198 94 40 63 44 245 209 192 198 213 70 59 52 43 32 12 1 347 345 354 351 354 349 349 343 337 333 329 322 315 308 305 300 294 292 287 260
63 81 69 66 67 53 56 50 60 37 204 340 63 31 46 9 355 355 354 354 342 348 351 354 349 342 339 332 329 326 324 318 313 308 302 295 289 284
70 74 73 71 71 63 64 68 60 36 14 335 16 9 43 8 343 349 350 351 330 346 356 348 344 341 339 337 334 331 328 323 317 311 302 296 290 285
68 66 56 62 63 62 62 59 63 68 48 54 13 9 335 359 349 347 340 349 341 353 350 344 338 336 335 335 333 331 332 327 319 311 306 299 294 283
68 66 61 62 68 65 72 56 57 67 53 58 41 0 355 340 337 359 352 355 339 346 344 336 328 320 338 338 330 324 326 327 324 314 303 298 290 283
73 74 67 67 69 69 69 46 62 71 61 59 42 27 2 4 11 352 349 335 322 352 334 326 323 328 335 332 322 323 327 326 320 313 300 294 285 273
96 80 70 57 58 77 78 74 68 66 57 54 30 36 22 6 356 356 353 351 348 339 336 318 6 339 332 329 324 328 329 324 319 310 298 287 285 277
69 70 75 69 76 79 79 71 62 67 68 70 62 41 22 10 348 339 3 349 314 331 343 306 349 336 332 319 326 334 335 330 324 312 297 278 274 266
62 64 75 66 67 80 95 84 63 55 54 58 55 51 41 26 11 341 334 306 305 47 13 331 328 327 325 312 327 340 344 342 332 313 290 258 252 241
68 53 58 68 75 83 85 90 73 48 39 54 63 61 56 42 35 355 9 5 340 329 13 338 319 322 318 307 337 351 352 357 359 0 339 246 242 242
60 42 70 78 77 80 83 87 83 68 52 28 32 60 50 36 31 24 360 19 350 344 1 345 324 350 328 305 340 355 352 356 6 21 40 64 78 90
83 58 45 78 77 73 71 82 89 84 58 52 59 52 41 37 27 10 15 44 35 7 351 340 319 341 329 311 318 352 354 355 2 22 31 51 61 74
99 45 72 78 76 78 71 68 76 69 76 64 55 44 33 29 18 357 1 3 19 54 343 346 327 348 330 325 338 335 342 3 7 21 26 34 57 68
126 108 95 84 76 60 62 64 64 80 75 75 61 45 25 3 347 348 349 353 22 7 355 344 14 350 357 358 324 344 349 349 5 14 32 37 30 42
108 90 91 81 76 68 45 43 33 81 76 71 61 47 30 4 359 320 7 337 53 334 357 14 360 35 29 351 355 348 4 19 346 8 31 42 35 37
100 46 37 43 47 33 20 22 56 81 80 75 55 48 24 10 341 339 12 11 47 342 351 332 333 41 44 32 19 11 358 13 2 358 35 47 35 34
59 93 67 71 113 145 108 76 80 76 71 76 73 59 49 39 10 352 8 40 38 353 340 323 332 21 12 349 40 2 3 358 8 18 14 55 47 27
109 129 142 166 202 181 139 115 103 69 47 83 82 61 20 36 54 22 3 30 7 356 322 319 3 60 66 33 304 33 25 0 14 44 39 48 57 46
123 151 168 178 192 185 175 157 132 84 74 60 63 7 42 101 34 26 19 19 9 352 350 349 22 32 115 170 119 355 45 35 34 39 23 16 30 38
180 172 174 179 185 182 179 176 149 142 149 129 110 94 55 99 66 76 61 30 34 32 10 347 294 284 158 41 40 345 336 29 76 115 321 67 34 12
190 193 192 185 182 177 177 188 155 130 149 148 155 146 140 132 133 122 93 95 7 292 269 284 337 19 51 94 204 360 335 340 11 34 45 105 150 153
196 191 183 184 178 172 176 190 178 161 174 164 161 162 142 127 155 135 129 122 126 35 22 351 3 22 16 91 122 20 17 351 359 355 2 11 59 107